This demonstration page uses our WeatherBlox Daily Observations layout. Learn more.

Left ArrowRight Arrow

41.86663, -103.66717

Hourly Observations for November 14, 2019

Temp ( °F °C ) Dew Point ( °F °C ) Humidity (%) Winds ( mph kmh ) Pressure ( in mb ) Visibility ( mi km ) Precip ( " mm )
12:53 am 00:53 Cloudy 36 2.2 32 0 86 86 NW 5 7 30.25 1024 10 16 0.00 0.00
1:53 am 01:53 Mostly Cloudy 33 0.6 31 -0.6 92 92 W 6 9 30.26 1025 10 16 0.00 0.00
2:53 am 02:53 Cloudy 31 -0.6 30 -1.1 96 96 Calm 30.28 1025 10 16 0.00 0.00
3:53 am 03:53 Clear 31 -0.6 30 -1.1 96 96 W 3 6 30.29 1026 10 16 0.00 0.00
4:53 am 04:53 Clear 29 -1.7 28 -2.2 96 96 NW 7 11 30.32 1027 10 16 0.00 0.00
5:53 am 05:53 Clear 28 -2.2 27 -2.8 96 96 NNW 7 11 30.33 1027 10 16 0.00 0.00
6:53 am 06:53 Sunny 27 -2.8 25 -3.9 92 92 Calm 30.37 1029 10 16 0.00 0.00
7:53 am 07:53 Sunny 32 0 30 -1.1 92 92 W 5 7 30.37 1029 10 16 0.00 0.00
8:53 am 08:53 Sunny 38 3.3 33 0.6 83 83 Calm 30.34 1028 10 16 0.00 0.00
9:53 am 09:53 Sunny 42 5.6 33 0.6 71 71 Calm 30.34 1027 10 16 0.00 0.00
10:53 am 10:53 Sunny 47 8.3 33 0.6 59 59 Calm 30.30 1026 10 16 0.00 0.00
11:53 am 11:53 Sunny 51 10.6 33 0.6 50 50 VRB 5 7 30.26 1025 10 16 0.00 0.00
12:53 pm 12:53 Sunny 54 12.2 33 0.6 45 45 VRB 5 7 30.23 1024 10 16 0.00 0.00
1:53 pm 13:53 Sunny 57 13.9 29 -1.7 34 34 S 7 11 30.20 1023 10 16 0.00 0.00
2:53 pm 14:53 Sunny 55 12.8 29 -1.7 37 37 SSW 7 11 30.21 1023 10 16 0.00 0.00
3:53 pm 15:53 Sunny 53 11.7 28 -2.2 38 38 S 6 9 30.21 1023 10 16 0.00 0.00
4:53 pm 16:53 Clear 42 5.6 27 -2.8 55 55 SSE 5 7 30.24 1024 10 16 0.00 0.00
5:53 pm 17:53 Clear 37 2.8 28 -2.2 70 70 ESE 6 9 30.26 1025 10 16 0.00 0.00
6:53 pm 18:53 Clear 34 1.1 27 -2.8 76 76 E 7 11 30.27 1025 10 16 0.00 0.00
7:53 pm 19:53 Clear 35 1.7 28 -2.2 76 76 E 7 11 30.24 1024 10 16 0.00 0.00
8:53 pm 20:53 Clear 33 0.6 27 -2.8 78 78 E 7 11 30.22 1024 10 16 0.00 0.00
9:53 pm 21:53 Clear 34 1.1 28 -2.2 79 79 E 8 13 30.21 1023 10 16 0.00 0.00
10:53 pm 22:53 Clear 35 1.7 29 -1.7 78 78 ENE 9 15 30.17 1022 10 16 0.00 0.00
11:53 pm 23:53 Clear 33 0.6 29 -1.7 85 85 ENE 7 11 30.16 1021 10 16 0.00 0.00

Powered by AerisWeather